SL-8 DEB, 2647

Orbit data source: Space-Track

SL-8 DEB, 2647 is space debris in LEO originally from a launch on Sat, 18 Sep 1965 UTC launched from the Tyuratam Missile And Space Complex (TTMTR). Debris objects in space refer to the collection of defunct objects orbiting the Earth. Examples of debris include non-operational satellites, rocket bodies, and fragments generated from explosions, collisions, or faulty payload assembly.

Loading next visibility...
Identifier
2647, 1965-073L
Orbit
LEO
Country
Flag of CISCIS
Related business
Manufacturer
Unknown
Mission
Spacecraft
Bus & Motor
Unknown
Mass
Unknown
Launch date (UTC)
Icon of a cake. It is the launch day of the satellite!1965-09-18 (60 years ago)
Launch vehicle
Unknown
Launch site
Tyuratam Missile And Space Complex (TTMTR)
Object type
Payload
Rocket body
Debris
Shape & HBR
Unknown
Radar Cross Section
Small (<0.1 m²)

Expand to show TLE details & history
Last TLE update: 17 hours ago

TLE from 17 hours ago
0 SL-8 DEB
1 02647U 65073L   25260.96454771 -.00000004  00000-0  60872-3 0  9999
2 02647  56.0635 194.9699 0189100  63.6548   8.7997 12.43653367 82767
Epoch: 2025-09-17T23:08Z
TLE epoch observation values (Epoch: 2025-09-17T23:08:56.922Z)
Latitude
52.55328°
Longitude
-88.44526°
Altitude
1,350.977 km
Speed
7.255 km/s
True Right ascension
17h 03m 41s
True Declination
52° 23' 60"
Sunlit
Object was in daylight at epoch
Visualization orbit readout
Latitude
Unknown
Longitude
Unknown
Altitude
Unknown
Speed
Unknown
Apparent Right ascension
Unknown
Apparent Declination
Unknown
Sunlit
N/A
Visualization observer readout
Local Sidereal Time
08:50:34
Azimuth
Unknown
Elevation
Unknown
Doppler factor
Unknown
Orbital elements
Apogee altitude
1,639.782 km
Perigee altitude
1,342.172 km
Semi-major axis
7,869.114 km
Eccentricity
0.01891
Inclination
56.0635°
RAAN
194.9699°
Arg. of periapsis
63.6548°
True anomaly
9.13912°
Mean anomaly
8.7997°
Eccentric anomaly
8.9686°
Mean motion
3.10924 °/min
Orbital period
115.78 mins
BSTAR
0.00060872
Loading maneuver chart data...
Computing Atmospheric mass density...
Loading historical data...
Loading historical data...
Loading historical data...
Loading historical data...
Loading historical data...
Loading historical data...
Loading historical data...

Documentation

Showing up to 5 results
|